Location: Coffee Creek Observatory
(38.8077°N, 94.7179°W)
Time: 07:45:54
(UTC-05:00)

Amateur Radio Satellites - All Passes

Search period start: 19 October 2017 07:15
Search period end: 20 October 2017 07:15
Location: Coffee Creek Observatory, 38.8077°N, 94.7179°W

Satellite Date Start Highest point End Downlink Frequencies (MHz)
Time Altitude Azimuth
XW-2B 19 Oct 07:21:08 07:24:52 70° 101° (E) 07:28:35 145.730 - 145.750
SO-50 19 Oct 07:39:13 07:43:39 65° 118° (ESE) 07:48:06 436.795
XW-2C 19 Oct 07:44:22 07:48:02 55° 285° (WNW) 07:51:40 145.795 - 145.815
O/OREOS (USA 219) 19 Oct 07:51:32 07:56:07 66° 251° (WSW) 08:00:38 437.305
UWE-3 19 Oct 07:55:14 07:55:50 10° 89° (E) 07:56:26 435.000/436.395/437.385
RS-15 19 Oct 07:56:11 08:05:18 23° 22° (NNE) 08:14:03 29.354- 29.394
DOVE 4 19 Oct 08:00:33 08:03:13 15° 295° (WNW) 08:05:55 437.250
CUTE 1.7 + AOD 2 19 Oct 08:01:34 08:05:32 39° 98° (E) 08:09:28 437.475
FO-29 19 Oct 08:06:37 08:09:43 16° 60° (ENE) 08:12:56 435.910
SEEDS 19 Oct 08:11:39 08:15:22 31° 97° (E) 08:19:04 437.485
HO-68 19 Oct 08:22:42 08:29:52 65° 103° (ESE) 08:37:00 435.675
YUBILEINY 19 Oct 08:24:52 08:27:37 12° 75° (ENE) 08:30:24 435.215
STRAND 1 19 Oct 08:25:23 08:30:22 52° 260° (W) 08:35:24 437.568
XW-2F 19 Oct 08:31:42 08:34:01 16° 292° (WNW) 08:36:20 145.980 - 146.000
KAITUO 1B 19 Oct 08:32:01 08:34:42 19° 291° (WNW) 08:37:24 145.475/437.950
LilacSat-2 19 Oct 08:34:16 08:36:10 14° 293° (WNW) 08:38:03 437.200
PCSat 19 Oct 08:34:45 08:39:37 35° 110° (ESE) 08:44:31 145.827
CUTE-I 19 Oct 08:35:59 08:40:45 33° 292° (WNW) 08:45:31 437.470
AAUSAT CUBESAT 2 19 Oct 08:39:56 08:43:29 28° 96° (E) 08:47:02 437.432
XW-2D 19 Oct 08:44:10 08:45:09 11° 295° (WNW) 08:46:08 145.860 - 145.880
CUBEBUG 2 19 Oct 08:47:09 08:51:49 77° 101° (E) 08:56:19 437.445
AO-73 19 Oct 08:48:38 08:51:48 19° 93° (E) 08:54:52 145.935
NUDT-PHONESAT 19 Oct 08:49:26 08:51:08 13° 293° (WNW) 08:52:51 437.300
ZACube-1 19 Oct 09:09:07 09:13:13 38° 97° (E) 09:17:11 437.345
XW-2A 19 Oct 09:09:20 09:12:42 79° 283° (WNW) 09:16:00 145.665 - 145.685
SO-50 19 Oct 09:21:45 09:24:32 16° 317° (NW) 09:27:20 436.795
UNISAT 6 19 Oct 09:25:43 09:29:13 21° 67° (ENE) 09:32:44 437.425
UWE-3 19 Oct 09:28:15 09:32:45 66° 285° (WNW) 09:37:05 435.000/436.395/437.385
CUTE 1.7 + AOD 2 19 Oct 09:38:26 09:41:01 16° 293° (WNW) 09:43:36 437.475
TIGRISAT 19 Oct 09:40:24 09:44:18 28° 69° (ENE) 09:48:16 435.000
NO-84 19 Oct 09:43:44 09:45:24 12° 20° (NNE) 09:47:03 435.350 FM
JUGNU 19 Oct 09:46:26 09:47:48 11° 184° (S) 09:49:09 437.505
SEEDS 19 Oct 09:47:47 09:50:49 20° 292° (WNW) 09:53:51 437.485
Oscar 11 19 Oct 09:48:06 09:52:23 64° 100° (E) 09:56:38 .
FO-29 19 Oct 09:49:05 09:54:11 60° 259° (W) 09:59:37 435.910
RS-15 19 Oct 10:09:12 10:21:02 61° 52° (NE) 10:32:11 29.354- 29.394
HO-68 19 Oct 10:11:28 10:17:00 25° 300° (WNW) 10:22:31 435.675
YUBILEINY 19 Oct 10:14:07 10:22:45 74° 93° (E) 10:31:26 435.215
AAUSAT CUBESAT 2 19 Oct 10:15:37 10:18:46 21° 291° (WNW) 10:21:55 437.432
PCSat 19 Oct 10:18:12 10:23:00 31° 307° (NW) 10:27:50 145.827
nSIGHT-1 19 Oct 10:18:52 10:21:38 27° 134° (SE) 10:24:25 .
DELFI C3 19 Oct 10:20:13 10:23:40 28° 96° (E) 10:27:08 145.870
AO-73 19 Oct 10:24:10 10:28:05 33° 289° (WNW) 10:31:54 145.935
CUBEBUG 2 19 Oct 10:26:38 10:27:41 11° 298° (WNW) 10:28:45 437.445
ZACube-1 19 Oct 10:46:12 10:49:10 18° 294° (WNW) 10:52:04 437.345
ISS 19 Oct 10:48:00 10:51:08 50° 137° (SE) 10:54:18 437.550
PRISM 19 Oct 10:54:10 10:58:12 85° 79° (E) 11:02:16 437.425
UNISAT 6 19 Oct 11:01:22 11:05:38 37° 263° (W) 11:09:59 437.425
AIST 2D 19 Oct 11:01:43 11:04:16 19° 70° (ENE) 11:06:49 435.315
QB50P2 19 Oct 11:05:27 11:06:32 11° 63° (ENE) 11:07:39 145.880/145.840
TIGRISAT 19 Oct 11:16:56 11:20:53 28° 265° (W) 11:24:55 435.000
NO-84 19 Oct 11:19:56 11:23:38 52° 40° (NE) 11:27:00 435.350 FM
DUCHIFAT 1 19 Oct 11:21:10 11:22:31 11° 63° (ENE) 11:23:52 145.980
EO-88 19 Oct 11:23:03 11:26:41 86° 285° (WNW) 11:30:18 145.990 - 145.960
Oscar 11 19 Oct 11:26:41 11:27:57 11° 297° (WNW) 11:29:13 .
Max Valier Satellite 19 Oct 11:30:06 11:33:38 46° 286° (WNW) 11:37:08 145.860
ESTCUBE 1 19 Oct 11:39:45 11:41:42 13° 91° (E) 11:43:39 437.505/2401.250
nSIGHT-1 19 Oct 11:55:01 11:57:52 29° 330° (NNW) 12:00:43 .
DELFI C3 19 Oct 11:55:22 11:58:13 19° 292° (WNW) 12:01:04 145.870
SRMSAT 19 Oct 12:06:42 12:08:37 12° 180° (S) 12:10:31 437.500
EO-79 19 Oct 12:12:59 12:17:09 57° 74° (ENE) 12:21:20 145.935-145.965
YUBILEINY 19 Oct 12:13:55 12:20:23 23° 293° (WNW) 12:26:55 435.215
LO-87 19 Oct 12:16:36 12:20:08 49° 100° (E) 12:23:38 145.935 - 145.965
POLYITAN 1 19 Oct 12:17:18 12:21:32 64° 74° (ENE) 12:25:47 437.675
RS-15 19 Oct 12:22:28 12:32:50 39° 254° (WSW) 12:42:46 29.354- 29.394
ISS 19 Oct 12:25:13 12:27:48 21° 334° (NNW) 12:30:23 437.550
Oscar 19 19 Oct 12:29:51 12:31:14 11° 60° (ENE) 12:32:37 437.125/150
AIST 2D 19 Oct 12:34:31 12:37:18 22° 265° (W) 12:40:04 435.315
SPROUT 19 Oct 12:35:29 12:37:05 12° 91° (E) 12:38:41 437.525
QB50P2 19 Oct 12:37:30 12:41:44 66° 259° (W) 12:46:00 145.880/145.840
BEESAT 3 19 Oct 12:39:34 12:43:22 43° 116° (ESE) 12:47:11 437.485
NANOSAT C BR1 19 Oct 12:41:57 12:46:11 74° 258° (WSW) 12:50:28 145.865
Gurwin Techsat 1B 19 Oct 12:50:56 12:53:13 13° 60° (ENE) 12:55:30 435.225
DUCHIFAT 1 19 Oct 12:53:25 12:57:37 62° 259° (W) 13:01:51 145.980
NO-84 19 Oct 12:58:42 13:00:31 13° 238° (WSW) 13:02:15 435.350 FM
AO-85 19 Oct 13:03:56 13:05:55 14° 109° (ESE) 13:07:55 145.980
BUGSAT 1 19 Oct 13:05:58 13:09:54 43° 72° (ENE) 13:13:54 437.445
VELOX 1 19 Oct 13:09:49 13:13:09 20° 94° (E) 13:16:28 145.980
ESTCUBE 1 19 Oct 13:14:25 13:18:48 55° 286° (WNW) 13:23:10 437.505/2401.250
EO-79 19 Oct 13:51:58 13:53:14 11° 269° (W) 13:54:30 145.935-145.965
BEESAT 2 19 Oct 13:57:15 14:01:14 86° 304° (NW) 14:05:19 435.950
Oscar 19 19 Oct 14:04:35 14:09:46 90° 241° (WSW) 14:14:57 437.125/150
SPROUT 19 Oct 14:09:04 14:13:17 54° 286° (WNW) 14:17:27 437.525
M-CUBED/EXP-1 PRIME 19 Oct 14:09:34 14:12:56 51° 254° (WSW) 14:16:10 437.505
AO-7 19 Oct 14:15:05 14:21:08 23° 54° (NE) 14:27:12 .
BEESAT 3 19 Oct 14:18:20 14:21:06 18° 313° (NW) 14:23:53 437.485
DX 1 19 Oct 14:19:19 14:23:06 28° 97° (E) 14:26:51 434.975-435.025
Gurwin Techsat 1B 19 Oct 14:27:07 14:32:25 82° 256° (WSW) 14:37:46 435.225
ITAMSAT 1 19 Oct 14:38:44 14:40:34 12° 59° (ENE) 14:42:24 435.822/435.867
AO-85 19 Oct 14:42:11 14:45:52 42° 306° (NW) 14:49:40 145.980
BUGSAT 1 19 Oct 14:43:10 14:45:27 14° 268° (W) 14:47:46 437.445
UKube-1 19 Oct 14:45:32 14:49:29 34° 98° (E) 14:53:25 .
VELOX 1 19 Oct 14:45:38 14:49:38 34° 289° (WNW) 14:53:37 145.980
50 SAT 19 Oct 14:48:16 14:51:35 89° 100° (E) 14:54:52 437.505
ITUPSAT 1 19 Oct 15:28:30 15:30:28 12° 91° (E) 15:32:25 437.325
BEESAT 2 19 Oct 15:39:01 15:39:36 10° 319° (NW) 15:40:12 435.950
ISS 19 Oct 15:41:39 15:42:58 12° 15° (NNE) 15:44:17 437.550
BEESAT 19 Oct 15:43:32 15:46:53 19° 94° (E) 15:50:14 436.000
DX 1 19 Oct 15:55:36 15:59:08 24° 292° (WNW) 16:02:39 434.975-435.025
AO-7 19 Oct 16:04:41 16:13:00 80° 253° (WSW) 16:21:20 .
SO-50 19 Oct 16:11:31 16:15:53 41° 53° (NE) 16:20:18 436.795
ITAMSAT 1 19 Oct 16:14:04 16:19:15 86° 256° (WSW) 16:24:30 435.822/435.867
UKube-1 19 Oct 16:22:06 16:25:15 20° 293° (WNW) 16:28:23 .
MOZHAYETS 4 19 Oct 16:44:04 16:48:40 83° 284° (WNW) 16:53:13
nSIGHT-1 19 Oct 16:46:50 16:49:38 27° 29° (NNE) 16:52:26 .
CUBESAT XI-V 19 Oct 16:53:05 16:56:53 25° 95° (E) 17:00:40 437.345
ITUPSAT 1 19 Oct 17:03:56 17:08:41 64° 286° (WNW) 17:13:23 437.325
ISS 19 Oct 17:16:59 17:20:07 42° 34° (NNE) 17:23:16 437.550
BEESAT 19 Oct 17:20:19 17:24:49 42° 289° (WNW) 17:29:17 436.000
PCSat 19 Oct 17:23:50 17:28:12 24° 50° (NE) 17:32:32 145.827
DOVE 4 19 Oct 17:25:42 17:29:44 52° 74° (ENE) 17:33:55 437.250
XW-2F 19 Oct 17:37:40 17:39:29 13° 67° (ENE) 17:41:19 145.980 - 146.000
KAITUO 1B 19 Oct 17:39:07 17:39:26 10° 65° (ENE) 17:39:46 145.475/437.950
LilacSat-2 19 Oct 17:40:06 17:42:34 17° 68° (ENE) 17:45:02 437.200
XW-2D 19 Oct 17:48:12 17:50:59 20° 69° (ENE) 17:53:46 145.860 - 145.880
SO-50 19 Oct 17:52:35 17:56:05 21° 249° (WSW) 17:59:37 436.795
NUDT-PHONESAT 19 Oct 17:52:59 17:55:07 15° 68° (ENE) 17:57:15 437.300
XW-2B 19 Oct 18:01:07 18:04:20 27° 71° (ENE) 18:07:33 145.730 - 145.750
AO-7 19 Oct 18:03:00 18:06:52 14° 270° (W) 18:10:44 .
CUTE-I 19 Oct 18:16:31 18:21:28 42° 70° (ENE) 18:26:29 437.470
KKS-1 19 Oct 18:18:00 18:22:27 58° 101° (E) 18:26:51 437.445
nSIGHT-1 19 Oct 18:23:01 18:25:55 31° 225° (SW) 18:28:48 .
XW-2C 19 Oct 18:23:44 18:27:27 53° 75° (ENE) 18:31:10 145.795 - 145.815
CUBESAT XI-V 19 Oct 18:30:14 18:34:12 29° 290° (WNW) 18:38:09 437.345
HO-68 19 Oct 18:49:53 18:56:29 42° 66° (ENE) 19:03:08 435.675
CUTE 1.7 + AOD 2 19 Oct 18:53:07 18:56:32 24° 70° (ENE) 18:59:57 437.475
STARS 19 Oct 18:53:23 18:57:46 56° 101° (E) 19:02:07 437.465
ISS 19 Oct 18:54:01 18:56:22 18° 229° (SW) 18:58:44 437.550
SEEDS 19 Oct 19:02:33 19:05:28 19° 68° (ENE) 19:08:24 437.485
DOVE 4 19 Oct 19:06:29 19:07:49 11° 270° (W) 19:09:09 437.250
PCSat 19 Oct 19:06:38 19:11:51 50° 248° (WSW) 19:17:02 145.827
KAITUO 1B 19 Oct 19:09:17 19:12:57 51° 261° (W) 19:16:36 145.475/437.950
XW-2F 19 Oct 19:09:40 19:13:14 39° 262° (W) 19:16:48 145.980 - 146.000
LilacSat-2 19 Oct 19:13:08 19:16:35 31° 263° (W) 19:20:01 437.200
XW-2D 19 Oct 19:21:48 19:24:59 25° 264° (W) 19:28:11 145.860 - 145.880
NUDT-PHONESAT 19 Oct 19:25:17 19:28:40 33° 262° (W) 19:32:04 437.300
AAUSAT CUBESAT 2 19 Oct 19:29:32 19:32:04 16° 67° (ENE) 19:34:37 437.432
XW-2B 19 Oct 19:35:47 19:38:29 18° 266° (W) 19:41:12 145.730 - 145.750
XW-2A 19 Oct 19:39:13 19:42:02 24° 71° (ENE) 19:44:52 145.665 - 145.685
CUBEBUG 2 19 Oct 19:43:08 19:47:38 53° 74° (ENE) 19:52:16 437.445
AO-73 19 Oct 19:43:16 19:45:49 15° 65° (ENE) 19:48:23 145.935
KKS-1 19 Oct 19:56:17 19:58:29 14° 297° (WNW) 20:00:39 437.445
CUTE-I 19 Oct 19:57:34 20:01:40 22° 266° (W) 20:05:47 437.470
ZACube-1 19 Oct 20:03:17 20:07:08 27° 69° (ENE) 20:10:59 437.345
UWE-3 19 Oct 20:22:54 20:27:31 83° 78° (ENE) 20:32:13 435.000/436.395/437.385
O/OREOS (USA 219) 19 Oct 20:24:58 20:27:48 17° 100° (E) 20:30:41 437.305
YUBILEINY 19 Oct 20:26:15 20:34:03 34° 72° (ENE) 20:41:50 435.215
CUTE 1.7 + AOD 2 19 Oct 20:28:43 20:32:15 26° 265° (W) 20:35:48 437.475
STARS 19 Oct 20:31:23 20:33:36 14° 296° (WNW) 20:35:48 437.465
STRAND 1 19 Oct 20:36:57 20:42:04 60° 101° (E) 20:47:08 437.568
SEEDS 19 Oct 20:37:07 20:40:54 33° 263° (W) 20:44:41 437.485
HO-68 19 Oct 20:37:46 20:44:13 36° 263° (W) 20:50:44 435.675
Oscar 11 19 Oct 20:41:20 20:45:24 40° 72° (ENE) 20:49:27 .
BEESAT 3 19 Oct 20:57:51 21:00:42 19° 47° (NE) 21:03:30 437.485
FO-29 19 Oct 20:58:23 21:03:42 22° 93° (E) 21:09:19 435.910
AAUSAT CUBESAT 2 19 Oct 21:03:22 21:07:11 37° 262° (W) 21:11:01 437.432
DELFI C3 19 Oct 21:05:20 21:07:26 14° 66° (ENE) 21:09:33 145.870
XW-2A 19 Oct 21:12:33 21:14:43 16° 266° (W) 21:16:53 145.665 - 145.685
AO-73 19 Oct 21:17:06 21:21:34 53° 260° (W) 21:26:04 145.935
CUBEBUG 2 19 Oct 21:22:01 21:24:33 14° 270° (W) 21:27:07 437.445
AO-85 19 Oct 21:34:30 21:36:54 14° 44° (NE) 21:39:22 145.980
ZACube-1 19 Oct 21:39:23 21:43:17 27° 265° (W) 21:47:13 437.345
EO-88 19 Oct 21:59:16 22:02:30 30° 72° (ENE) 22:05:44 145.990 - 145.960
O/OREOS (USA 219) 19 Oct 22:02:28 22:06:48 43° 295° (WNW) 22:11:13 437.305
Max Valier Satellite 19 Oct 22:06:54 22:10:33 56° 75° (ENE) 22:14:13 145.860
BEESAT 2 19 Oct 22:16:05 22:19:50 35° 53° (NE) 22:23:31 435.950
STRAND 1 19 Oct 22:17:33 22:20:43 17° 297° (WNW) 22:23:52 437.568
Oscar 11 19 Oct 22:18:57 22:21:41 16° 268° (W) 22:24:23 .
YUBILEINY 19 Oct 22:22:42 22:31:04 51° 271° (W) 22:39:27 435.215
BEESAT 3 19 Oct 22:34:43 22:38:24 38° 245° (WSW) 22:42:00 437.485
DELFI C3 19 Oct 22:38:10 22:41:49 39° 262° (W) 22:45:31 145.870
PRISM 19 Oct 22:38:18 22:40:06 12° 92° (E) 22:41:53 437.425
ESTCUBE 1 19 Oct 22:39:17 22:40:25 11° 62° (ENE) 22:41:34 437.505/2401.250
FO-29 19 Oct 22:42:09 22:49:00 68° 287° (WNW) 22:56:34 435.910
LO-87 19 Oct 22:52:03 22:54:23 17° 68° (ENE) 22:56:44 145.935 - 145.965
UNISAT 6 19 Oct 22:53:58 22:58:29 51° 99° (E) 23:02:52 437.425
TIGRISAT 19 Oct 23:08:55 23:13:32 70° 102° (ESE) 23:18:00 435.000
AO-85 19 Oct 23:13:10 23:17:48 83° 239° (WSW) 23:22:46 145.980
EO-88 19 Oct 23:34:05 23:36:11 15° 267° (W) 23:38:19 145.990 - 145.960
BEESAT 2 19 Oct 23:54:27 23:57:17 19° 249° (WSW) 00:00:04 435.950
AIST 2D 20 Oct 00:00:01 00:02:58 26° 96° (E) 00:05:54 435.315
POLYITAN 1 20 Oct 00:05:39 00:07:00 11° 91° (E) 00:08:20 437.675
VELOX 1 20 Oct 00:06:26 00:09:08 16° 65° (ENE) 00:11:50 145.980
PRISM 20 Oct 00:11:37 00:15:35 47° 287° (WNW) 00:19:34 437.425
ESTCUBE 1 20 Oct 00:12:07 00:16:36 72° 259° (WSW) 00:21:05 437.505/2401.250
QB50P2 20 Oct 00:24:11 00:27:29 21° 95° (E) 00:30:45 145.880/145.840
LO-87 20 Oct 00:24:29 00:27:33 27° 263° (W) 00:30:41 145.935 - 145.965
NANOSAT C BR1 20 Oct 00:28:16 00:31:18 19° 94° (E) 00:34:18 145.865
RS-15 20 Oct 00:30:00 00:41:11 44° 107° (ESE) 00:52:23 29.354- 29.394
FO-29 20 Oct 00:30:28 00:33:01 12° 303° (WNW) 00:35:37 435.910
UNISAT 6 20 Oct 00:32:02 00:34:42 15° 296° (WNW) 00:37:19 437.425
DUCHIFAT 1 20 Oct 00:39:08 00:42:27 22° 95° (E) 00:45:43 145.980
TIGRISAT 20 Oct 00:47:56 00:49:33 12° 298° (WNW) 00:51:09 435.000
SPROUT 20 Oct 01:00:22 01:04:38 88° 252° (WSW) 01:08:58 437.525
DX 1 20 Oct 01:13:55 01:17:11 21° 67° (ENE) 01:20:28 434.975-435.025
50 SAT 20 Oct 01:16:02 01:18:29 20° 70° (ENE) 01:20:59 437.505
AIST 2D 20 Oct 01:33:46 01:35:55 16° 291° (WNW) 01:38:03 435.315
EO-79 20 Oct 01:34:18 01:38:32 63° 285° (WNW) 01:42:42 145.935-145.965
UKube-1 20 Oct 01:38:51 01:42:22 25° 68° (ENE) 01:45:52 .
POLYITAN 1 20 Oct 01:38:55 01:43:05 55° 286° (WNW) 01:47:14 437.675
VELOX 1 20 Oct 01:41:01 01:45:11 44° 261° (W) 01:49:24 145.980
QB50P2 20 Oct 01:59:32 02:03:14 29° 290° (WNW) 02:06:55 145.880/145.840
NANOSAT C BR1 20 Oct 02:03:15 02:07:03 33° 289° (WNW) 02:10:50 145.865
DUCHIFAT 1 20 Oct 02:14:26 02:18:04 28° 290° (WNW) 02:21:42 145.980
Oscar 19 20 Oct 02:17:44 02:22:23 34° 97° (E) 02:27:01 437.125/150
BUGSAT 1 20 Oct 02:23:45 02:28:00 89° 70° (ENE) 02:32:11 437.445
ITUPSAT 1 20 Oct 02:34:04 02:36:31 14° 62° (ENE) 02:38:59 437.325
NO-84 20 Oct 02:35:00 02:37:19 14° 122° (ESE) 02:39:39 435.350 FM
RS-15 20 Oct 02:41:14 02:53:19 59° 309° (NW) 03:05:26 29.354- 29.394
Gurwin Techsat 1B 20 Oct 02:44:45 02:49:50 44° 99° (E) 02:54:53 435.225
50 SAT 20 Oct 02:48:31 02:50:44 17° 265° (W) 02:52:58 437.505
BEESAT 20 Oct 02:48:47 02:52:14 20° 65° (ENE) 02:55:41 436.000
DX 1 20 Oct 02:49:18 02:53:09 31° 262° (W) 02:57:02 434.975-435.025
UKube-1 20 Oct 03:14:40 03:18:16 26° 264° (W) 03:21:53 .
M-CUBED/EXP-1 PRIME 20 Oct 03:22:04 03:25:35 64° 289° (WNW) 03:29:23 437.505
MOZHAYETS 4 20 Oct 03:44:06 03:48:44 80° 76° (ENE) 03:53:24
CUBESAT XI-V 20 Oct 03:55:19 03:58:52 22° 68° (ENE) 04:02:25 437.345
Oscar 19 20 Oct 03:57:19 04:01:31 27° 293° (WNW) 04:05:45 437.125/150
AO-7 20 Oct 04:08:05 04:15:39 37° 99° (E) 04:23:10 .
ITUPSAT 1 20 Oct 04:09:01 04:13:47 63° 258° (WSW) 04:18:34 437.325
NO-84 20 Oct 04:09:58 04:14:17 74° 318° (NW) 04:18:32 435.350 FM
BEESAT 20 Oct 04:25:10 04:29:40 42° 261° (W) 04:34:13 436.000
Gurwin Techsat 1B 20 Oct 04:25:23 04:29:27 23° 295° (WNW) 04:33:32 435.225
ITAMSAT 1 20 Oct 04:28:25 04:33:15 37° 98° (E) 04:38:03 435.822/435.867
RS-15 20 Oct 05:00:06 05:09:17 23° 338° (NNW) 05:18:22 29.354- 29.394
KKS-1 20 Oct 05:14:34 05:18:46 44° 72° (ENE) 05:22:59 437.445
DOVE 4 20 Oct 05:25:36 05:29:08 19° 93° (E) 05:32:44 437.250
CUBESAT XI-V 20 Oct 05:31:48 05:36:01 34° 263° (W) 05:40:14 437.345
STARS 20 Oct 05:48:28 05:52:35 41° 71° (ENE) 05:56:44 437.465
NO-84 20 Oct 05:49:31 05:52:18 17° 334° (NNW) 05:55:02 435.350 FM
AO-7 20 Oct 06:00:39 06:08:29 48° 296° (WNW) 06:16:18 .
ITAMSAT 1 20 Oct 06:08:13 06:12:30 26° 294° (WNW) 06:16:47 435.822/435.867
SO-50 20 Oct 06:26:06 06:28:53 16° 109° (ESE) 06:31:40 436.795
O/OREOS (USA 219) 20 Oct 06:34:44 06:38:39 27° 60° (ENE) 06:42:32 437.305
CUTE-I 20 Oct 06:35:36 06:39:18 19° 93° (E) 06:43:00 437.470
KAITUO 1B 20 Oct 06:42:31 06:44:43 15° 93° (E) 06:46:54 145.475/437.950
XW-2F 20 Oct 06:43:13 06:46:02 20° 95° (E) 06:48:50 145.980 - 146.000
LilacSat-2 20 Oct 06:47:22 06:50:36 27° 96° (E) 06:53:48 437.200
KKS-1 20 Oct 06:52:53 06:55:30 15° 267° (W) 06:58:10 437.445
XW-2D 20 Oct 06:54:53 06:58:16 32° 97° (E) 07:01:37 145.860 - 145.880
NUDT-PHONESAT 20 Oct 06:56:42 06:59:35 22° 95° (E) 07:02:26 437.300
DOVE 4 20 Oct 07:02:09 07:06:57 48° 287° (WNW) 07:11:56 437.250
XW-2B 20 Oct 07:08:09 07:11:45 45° 99° (E) 07:15:21 145.730 - 145.750
